Universal City, TX

3:29 AM CST on February 28, 2017 (GMT -0600)
Randolph Air Force Base

Weather History for KRND - January, 2013

Change the Weather History Date:

Friday, January 25, 2013

  Actual Average Record
Temperature  
Mean Temperature 69 °F -  
Max Temperature 78 °F 61 °F 78 °F (2013)
Min Temperature 60 °F 42 °F 29 °F (2014)
Cooling Degree Days 4    
Growing Degree Days 19 (Base 50)    
Moisture  
Dew Point 62 °F    
Average Humidity 89    
Maximum Humidity 100    
Minimum Humidity 54    
Precipitation  
Precipitation 0.00 in - - ()
Sea Level Pressure  
Sea Level Pressure 30.10 in    
Wind  
Wind Speed 7 mph (SSW)    
Max Wind Speed 15 mph    
Max Gust Speed 22 mph    
Visibility 10 miles    
Events      
Averages and records for this station are not official NWS values.
T = Trace of Precipitation, MM = Missing Value Source: NWS Daily Summary

Daily Weather History Graph

Daily Weather History Graph

Search for Another Location

Airport or City:

Trip Planner

Search our weather history database for the weather conditions in past years. The results will help you decide how hot, cold, wet, or windy it might be!

Date:

Astronomy

Jan. 25, 2013 Rise Set
Actual Time 7:25 AM CST 6:05 PM CST
Civil Twilight 7:00 AM CST 6:30 PM CST
Nautical Twilight 6:31 AM CST 6:59 PM CST
Astronomical Twilight 6:03 AM CST 7:27 PM CST
Moon 5:03 PM CST (1/25) 6:05 AM CST (1/25)
Length of Visible Light 11h 29m
Length of Day
10h 39m
Waxing Gibbous, 98% of the Moon is Illuminated
Jan 25
Waxing Gibbous
Jan 26
Full
Feb 3
Last Quarter
Feb 10
New
Feb 17
First Quarter

Hourly Weather History & Observations

Time (CST) Temp. Dew Point Humidity Pressure Visibility Wind Dir Wind Speed Gust Speed Precip Events Conditions
12:37 AM 60.8 °F 60.8 °F 100% 30.14 in 10.0 mi South 4.6 mph - N/A   Partly Cloudy
12:51 AM 60.8 °F 60.8 °F 100% 30.14 in 10.0 mi SSW 4.6 mph - N/A   Mostly Cloudy
12:55 AM 61.0 °F 61.0 °F 100% 30.14 in 10.0 mi SSW 4.6 mph - N/A   Mostly Cloudy
1:18 AM 60.8 °F 60.8 °F 100% 30.14 in 10.0 mi SSW 5.8 mph - N/A   Overcast
1:55 AM 61.7 °F 61.7 °F 100% 30.13 in 10.0 mi SSW 6.9 mph - N/A   Overcast
2:14 AM 62.6 °F 62.6 °F 100% 30.12 in 10.0 mi SSW 10.4 mph - N/A   Overcast
2:27 AM 62.6 °F 62.6 °F 100% 30.12 in 9.0 mi SSW 9.2 mph - N/A   Overcast
2:30 AM 62.6 °F 62.6 °F 100% 30.11 in 9.0 mi SSW 15.0 mph - N/A   Overcast
2:55 AM 62.6 °F 62.6 °F 100% 30.10 in 10.0 mi SSW 13.8 mph 21.9 mph N/A   Overcast
2:58 AM 62.6 °F 62.6 °F 100% 30.11 in 10.0 mi SSW 12.7 mph 21.9 mph N/A   Overcast
3:55 AM 63.0 °F 63.0 °F 100% 30.10 in 10.0 mi SSW 9.2 mph 18.4 mph N/A   Overcast
3:56 AM 62.6 °F 62.6 °F 100% 30.09 in 10.0 mi SSW 9.2 mph 18.4 mph N/A   Overcast
4:35 AM 62.6 °F 62.6 °F 100% 30.09 in 10.0 mi SSW 8.1 mph - N/A   Overcast
4:55 AM 63.0 °F 63.0 °F 100% 30.09 in 10.0 mi South 9.2 mph - N/A   Overcast
5:22 AM 62.6 °F 62.6 °F 100% 30.10 in 10.0 mi SSW 5.8 mph - N/A   Overcast
5:55 AM 62.4 °F 62.1 °F 99% 30.10 in 10.0 mi SSW 3.5 mph - N/A   Mostly Cloudy
6:55 AM 62.4 °F 62.1 °F 99% 30.12 in 10.0 mi SW 5.8 mph - N/A   Mostly Cloudy
7:55 AM 62.6 °F 62.2 °F 99% 30.12 in 10.0 mi SSW 5.8 mph - N/A   Overcast
8:03 AM 62.6 °F 62.6 °F 100% 30.12 in 10.0 mi SSW 6.9 mph - N/A   Mostly Cloudy
8:55 AM 63.5 °F 63.1 °F 99% 30.14 in 10.0 mi SSW 6.9 mph - N/A   Mostly Cloudy
9:55 AM 64.9 °F 63.5 °F 95% 30.15 in 10.0 mi SSW 8.1 mph - N/A   Overcast
10:06 AM 64.4 °F 62.6 °F 94% 30.15 in 10.0 mi SSW 6.9 mph - N/A   Mostly Cloudy
10:55 AM 66.2 °F 63.0 °F 89% 30.16 in 10.0 mi SSW 9.2 mph - N/A   Mostly Cloudy
11:53 AM 69.8 °F 62.6 °F 78% 30.13 in 10.0 mi SW 8.1 mph - N/A   Mostly Cloudy
11:55 AM 70.5 °F 63.0 °F 77% 30.13 in 10.0 mi South 6.9 mph - N/A   Mostly Cloudy
12:18 PM 69.8 °F 62.6 °F 78% 30.13 in 10.0 mi SSW 5.8 mph - N/A   Partly Cloudy
12:55 PM 73.0 °F 63.1 °F 71% 30.09 in 10.0 mi SSW 9.2 mph - N/A   Clear
1:55 PM 76.5 °F 62.8 °F 62% 30.06 in 10.0 mi SW 9.2 mph - N/A   Clear
2:55 PM 78.6 °F 62.1 °F 57% 30.04 in 10.0 mi South 10.4 mph - N/A   Clear
3:55 PM 78.8 °F 61.3 °F 55% 30.03 in 10.0 mi South 9.2 mph - N/A   Clear
4:55 PM 77.9 °F 60.1 °F 54% 30.02 in 10.0 mi SSW 4.6 mph - N/A   Clear
5:55 PM 75.9 °F 59.5 °F 57% 30.03 in 10.0 mi SSW 4.6 mph - N/A   Clear
6:55 PM 69.6 °F 59.2 °F 69% 30.04 in 10.0 mi Calm Calm - N/A   Clear
7:55 PM 67.5 °F 60.1 °F 77% 30.04 in 10.0 mi Calm Calm - N/A   Clear
8:55 PM 69.1 °F 63.5 °F 82% 30.06 in 10.0 mi SSE 8.1 mph - N/A   Clear
9:55 PM 67.6 °F 64.2 °F 89% 30.09 in 10.0 mi South 8.1 mph - N/A   Clear
10:55 PM 64.4 °F 63.5 °F 97% 30.10 in 10.0 mi SE 4.6 mph - N/A   Clear
11:39 PM 64.4 °F 64.4 °F 100% 30.11 in 10.0 mi NE 5.8 mph - N/A   Mostly Cloudy
11:55 PM 65.3 °F 64.4 °F 97% 30.11 in 10.0 mi East 3.5 mph - N/A   Overcast